Weather History for Lakeview AWS, OR

Change the Weather History Date:

Sunday, January 5, 2014

  Actual Average Record
Temperature  
Mean Temperature 28 °F -  
Max Temperature 48 °F 34 °F 50 °F (1963)
Min Temperature 8 °F 18 °F -13 °F (1949)
Degree Days  
Heating Degree Days 37    
Moisture  
Dew Point 5 °F    
Average Humidity 47    
Maximum Humidity 92    
Minimum Humidity 13    
Precipitation  
Precipitation 0.00 in - - ()
Sea Level Pressure  
Sea Level Pressure 30.38 in    
Wind  
Wind Speed 6 mph (NNW)    
Max Wind Speed 13 mph    
Max Gust Speed -    
Visibility 10 miles    
Events      
Averages and records for this station are not official NWS values.
T = Trace of Precipitation, MM = Missing Value Source: NWS Daily Summary

Daily Weather History Graph

Daily Weather History Graph

Search for Another Location

Airport:

Trip Planner

Search our weather history database for the weather conditions in past years. The results will help you decide how hot, cold, wet, or windy it might be!

Date:

Astronomy

Jan. 05, 2014 Rise Set
Actual Time 7:30 AM PST 4:44 PM PST
Civil Twilight 6:58 AM PST 5:15 PM PST
Nautical Twilight 6:23 AM PST 5:50 PM PST
Astronomical Twilight 5:49 AM PST 6:24 PM PST
Moon 10:08 AM PST (1/5) 10:24 PM PST (1/5)
Length of Visible Light 10h 17m
Length of Day
9h 13m
Waxing Crescent, 25% of the Moon is Illuminated
Jan 5
Waxing Crescent
Jan 7
First Quarter
Jan 15
Full
Jan 23
Last Quarter
Jan 30
New

Hourly Weather History & Observations

Time (PST) Temp. Windchill Dew Point Humidity Pressure Visibility Wind Dir Wind Speed Gust Speed Precip Events Conditions
12:15 AM 17.6 °F 8.2 °F 8.6 °F 68% 30.37 in 10.0 mi NNW 6.9 mph - N/A   Clear
12:35 AM 15.8 °F 6.1 °F 6.8 °F 68% 30.37 in 10.0 mi North 6.9 mph - N/A   Clear
12:55 AM 15.8 °F 5.1 °F 1.4 °F 53% 30.36 in 10.0 mi NNW 8.1 mph - N/A   Clear
1:15 AM 15.8 °F 6.1 °F 6.8 °F 68% 30.37 in 10.0 mi NNW 6.9 mph - N/A   Clear
1:35 AM 12.2 °F -0.2 °F 6.8 °F 79% 30.37 in 10.0 mi NW 9.2 mph - N/A   Clear
1:55 AM 15.8 °F 2.7 °F 3.2 °F 58% 30.37 in 10.0 mi NW 11.5 mph - N/A   Clear
2:15 AM 19.4 °F 6.6 °F 8.6 °F 63% 30.38 in 10.0 mi NNW 12.7 mph - N/A   Clear
2:35 AM 19.4 °F 8.6 °F 6.8 °F 58% 30.38 in 10.0 mi NW 9.2 mph - N/A   Clear
2:55 AM 17.6 °F 6.4 °F 5.0 °F 58% 30.38 in 10.0 mi NW 9.2 mph - N/A   Clear
3:15 AM 17.6 °F 8.2 °F 3.2 °F 53% 30.38 in 10.0 mi NW 6.9 mph - N/A   Clear
3:35 AM 19.4 °F 8.6 °F 3.2 °F 49% 30.38 in 10.0 mi NNW 9.2 mph - N/A   Clear
3:55 AM 17.6 °F 7.3 °F 1.4 °F 49% 30.38 in 10.0 mi NW 8.1 mph - N/A   Clear
4:15 AM 17.6 °F 5.7 °F 1.4 °F 49% 30.39 in 10.0 mi NNW 10.4 mph - N/A   Clear
4:35 AM 15.8 °F 8.6 °F 1.4 °F 53% 30.39 in 10.0 mi ENE 4.6 mph - N/A   Clear
4:55 AM 10.4 °F 4.0 °F -0.4 °F 62% 30.39 in 10.0 mi NNE 3.5 mph - N/A   Clear
5:15 AM 12.2 °F -0.2 °F 3.2 °F 67% 30.39 in 10.0 mi NNW 9.2 mph - N/A   Clear
5:35 AM 15.8 °F 3.4 °F 5.0 °F 62% 30.38 in 10.0 mi NNW 10.4 mph - N/A   Clear
5:55 AM 15.8 °F 2.7 °F 3.2 °F 58% 30.38 in 10.0 mi NNW 11.5 mph - N/A   Clear
6:15 AM 17.6 °F 8.2 °F 1.4 °F 49% 30.39 in 10.0 mi North 6.9 mph - N/A   Clear
6:35 AM 10.4 °F 4.0 °F 1.4 °F 67% 30.39 in 10.0 mi East 3.5 mph - N/A   Clear
6:55 AM 8.6 °F - -0.4 °F 67% 30.39 in 10.0 mi Calm Calm - N/A   Clear
7:15 AM 10.4 °F -0.4 °F 3.2 °F 73% 30.39 in 10.0 mi NNW 6.9 mph - N/A   Clear
7:35 AM 8.6 °F 0.1 °F 6.8 °F 92% 30.40 in 10.0 mi NNE 4.6 mph - N/A   Clear
7:55 AM 8.6 °F -1.3 °F 1.4 °F 73% 30.40 in 10.0 mi North 5.8 mph - N/A   Clear
8:15 AM 12.2 °F 4.3 °F 6.8 °F 79% 30.41 in 10.0 mi North 4.6 mph - N/A   Clear
8:35 AM 15.8 °F - 8.6 °F 73% 30.42 in 10.0 mi Calm Calm - N/A   Clear
8:55 AM 21.2 °F - 6.8 °F 54% 30.42 in 10.0 mi Calm Calm - N/A   Clear
9:15 AM 26.6 °F - 6.8 °F 43% 30.43 in 10.0 mi Calm Calm - N/A   Clear
9:35 AM 26.6 °F - 8.6 °F 47% 30.44 in 10.0 mi Calm Calm - N/A   Clear
9:55 AM 28.4 °F 24.6 °F 8.6 °F 43% 30.44 in 10.0 mi ESE 3.5 mph - N/A   Clear
10:15 AM 30.2 °F - 8.6 °F 40% 30.44 in 10.0 mi Calm Calm - N/A   Clear
10:35 AM 32.0 °F 26.4 °F 8.6 °F 38% 30.43 in 10.0 mi SE 5.8 mph - N/A   Clear
10:55 AM 35.6 °F 29.9 °F 6.8 °F 30% 30.43 in 10.0 mi SSE 6.9 mph - N/A   Clear
11:15 AM 37.4 °F 32.8 °F 3.2 °F 24% 30.42 in 10.0 mi SE 5.8 mph - N/A   Clear
11:35 AM 39.2 °F 37.0 °F 1.4 °F 21% 30.41 in 10.0 mi SSE 3.5 mph - N/A   Clear
11:55 AM 42.8 °F - 3.2 °F 19% 30.40 in 10.0 mi Calm Calm - N/A   Clear
12:15 PM 44.6 °F - 3.2 °F 18% 30.39 in 10.0 mi Calm Calm - N/A   Clear
12:35 PM 46.4 °F 44.3 °F 1.4 °F 16% 30.38 in 10.0 mi West 4.6 mph - N/A   Clear
12:55 PM 48.2 °F - 1.4 °F 15% 30.37 in 10.0 mi WSW 3.5 mph - N/A   Clear
1:15 PM 48.2 °F - 1.4 °F 15% 30.37 in 10.0 mi SW 4.6 mph - N/A   Clear
1:35 PM 46.4 °F 41.9 °F -0.4 °F 14% 30.37 in 10.0 mi South 9.2 mph - N/A   Clear
1:55 PM 46.4 °F 43.5 °F -0.4 °F 14% 30.37 in 10.0 mi SSW 5.8 mph - N/A   Clear
2:15 PM 46.4 °F 44.3 °F -0.4 °F 14% 30.36 in 10.0 mi South 4.6 mph - N/A   Clear
2:35 PM 46.4 °F - -2.2 °F 13% 30.36 in 10.0 mi Calm Calm - N/A   Clear
2:55 PM 46.4 °F - -2.2 °F 13% 30.36 in 10.0 mi Calm Calm - N/A   Clear
3:15 PM 48.2 °F - -0.4 °F 13% 30.37 in 10.0 mi WSW 3.5 mph - N/A   Clear
3:35 PM 48.2 °F - -0.4 °F 13% 30.37 in 10.0 mi NW 5.8 mph - N/A   Clear
3:55 PM 44.6 °F 42.2 °F 3.2 °F 18% 30.37 in 10.0 mi NW 4.6 mph - N/A   Clear
4:15 PM 44.6 °F 43.1 °F 5.0 °F 20% 30.36 in 10.0 mi WNW 3.5 mph - N/A   Clear
4:35 PM 39.2 °F 35.9 °F 5.0 °F 24% 30.37 in 10.0 mi SE 4.6 mph - N/A   Clear
4:55 PM 32.0 °F 26.4 °F 6.8 °F 35% 30.36 in 10.0 mi East 5.8 mph - N/A   Clear
5:15 PM 28.4 °F 23.3 °F 3.2 °F 34% 30.36 in 10.0 mi East 4.6 mph - N/A   Clear
5:35 PM 30.2 °F 26.7 °F 1.4 °F 29% 30.36 in 10.0 mi North 3.5 mph - N/A   Clear
5:55 PM 26.6 °F 18.2 °F 6.8 °F 43% 30.36 in 10.0 mi NW 8.1 mph - N/A   Clear
6:15 PM 26.6 °F 19.1 °F 8.6 °F 47% 30.37 in 10.0 mi NW 6.9 mph - N/A   Clear
6:35 PM 26.6 °F 18.2 °F 8.6 °F 47% 30.36 in 10.0 mi NNW 8.1 mph - N/A   Clear
6:55 PM 26.6 °F 21.2 °F 8.6 °F 47% 30.37 in 10.0 mi North 4.6 mph - N/A   Clear
7:15 PM 21.2 °F 13.6 °F 8.6 °F 58% 30.37 in 10.0 mi ENE 5.8 mph - N/A   Clear
7:35 PM 21.2 °F 11.7 °F 8.6 °F 58% 30.37 in 10.0 mi NNW 8.1 mph - N/A   Clear
7:55 PM 21.2 °F 11.7 °F 10.4 °F 63% 30.36 in 10.0 mi NNW 8.1 mph - N/A   Clear
8:15 PM 21.2 °F 13.6 °F 8.6 °F 58% 30.37 in 10.0 mi NW 5.8 mph - N/A   Clear
8:35 PM 21.2 °F 16.4 °F 8.6 °F 58% 30.38 in 10.0 mi ENE 3.5 mph - N/A   Clear
8:55 PM 17.6 °F 9.3 °F 6.8 °F 63% 30.39 in 10.0 mi NNE 5.8 mph - N/A   Clear
9:15 PM 17.6 °F - 10.4 °F 73% 30.39 in 10.0 mi Calm Calm - N/A   Clear
9:35 PM 17.6 °F 5.7 °F 3.2 °F 53% 30.39 in 10.0 mi NNW 10.4 mph - N/A   Clear
9:55 PM 19.4 °F 9.5 °F 8.6 °F 63% 30.39 in 10.0 mi NW 8.1 mph - N/A   Clear
10:15 PM 19.4 °F 7.9 °F 8.6 °F 63% 30.39 in 10.0 mi NW 10.4 mph - N/A   Clear
10:35 PM 19.4 °F 9.5 °F 8.6 °F 63% 30.38 in 10.0 mi NW 8.1 mph - N/A   Clear
10:55 PM 19.4 °F 10.4 °F 8.6 °F 63% 30.38 in 10.0 mi North 6.9 mph - N/A   Clear
11:15 PM 21.2 °F 12.6 °F 8.6 °F 58% 30.37 in 10.0 mi NW 6.9 mph - N/A   Clear
11:35 PM 21.2 °F 10.9 °F 8.6 °F 58% 30.37 in 10.0 mi NW 9.2 mph - N/A   Clear
11:55 PM 21.2 °F 12.6 °F 6.8 °F 54% 30.37 in 10.0 mi NE 6.9 mph - N/A   Clear